Kuiper-00102

operational
NORAD ID: 65140 Int'l Des: 2025-171 Owner: KUIP Country: US Constellation: kuiper
LEOCIRCULAR

Kuiper-00102について

説明を読み込み中...

リアルタイム位置

3D地球を読み込み中...

次回通過

高度履歴

Altitude vs Time

uPlot chart will show altitude changes over time

軌道要素

1 65140U 25171J 25350.91670139 .00016043 00000-0 20692-2 0 9998
2 65140 51.8970 159.0731 0004288 235.2143 282.3803 14.81118286 4499
Epoch: Dec 16, 2025 • Age: 7 hours

現在のステータス

高度 635.7 km
速度 7.54 km/s
衛星直下点 -33.64°S, 37.44°W
打ち上げ日 Aug 11, 2025
運用期間 0.3 years
タイプ internet

技術仕様

分類 Payload
質量 490.00 kg
乾燥質量 490.00 kg
総質量 490.00 kg
長さ 1.80 m
直径 0.70 m
スパン 5.00 m
形状 Box + 2 pan
製造者 KUIP
バスタイプ Kuiper
フェーズステータス In Orbit
所有者/国 KUIP/US

大規模コンステレーション

Loading constellations...